Time,TemperatureF,DewpointF,PressureIn,WindDirection,WindDirectionDegrees,WindSpeedMPH,WindSpeedGustMPH,Humidity,HourlyPrecipIn,Conditions,Clouds,dailyrainin,SolarRadiationWatts/m^2,SoftwareType,DateUTC
2013-09-13 00:02:00,65.0,44.0,-100.00,South,178,3.0,6.0,46,0.00,,,0.00,0.000000,,2013-09-13 06:02:00,
2013-09-13 00:22:00,65.0,44.0,-100.00,South,178,3.0,6.0,46,0.00,,,0.00,0.000000,,2013-09-13 06:22:00,
2013-09-13 00:32:00,65.0,44.0,-100.00,South,178,3.0,6.0,46,0.00,,,0.00,0.000000,,2013-09-13 06:32:00,
2013-09-13 00:42:00,65.0,44.0,-100.00,South,178,3.0,6.0,46,0.00,,,0.00,0.000000,,2013-09-13 06:42:00,
2013-09-13 00:52:00,65.0,44.0,-100.00,South,178,3.0,6.0,46,0.00,,,0.00,0.000000,,2013-09-13 06:52:00,
2013-09-13 01:22:00,64.0,43.0,-100.00,WNW,288,2.0,8.0,46,0.00,,,0.00,0.000000,,2013-09-13 07:22:00,
2013-09-13 01:34:00,64.0,43.0,-100.00,WNW,288,2.0,8.0,46,0.00,,,0.00,0.000000,,2013-09-13 07:34:00,
2013-09-13 01:43:00,64.0,43.0,-100.00,WNW,288,2.0,8.0,46,0.00,,,0.00,0.000000,,2013-09-13 07:43:00,
2013-09-13 01:52:00,64.0,43.0,-100.00,WNW,288,2.0,8.0,46,0.00,,,0.00,0.000000,,2013-09-13 07:52:00,
2013-09-13 02:01:00,64.0,43.0,-100.00,WNW,288,2.0,8.0,46,0.00,,,0.00,0.000000,,2013-09-13 08:01:00,
2013-09-13 02:02:00,64.0,44.0,-100.00,WNW,302,2.0,5.0,48,0.00,,,0.00,0.000000,,2013-09-13 08:02:00,
2013-09-13 02:42:00,64.0,44.0,-100.00,WNW,302,2.0,5.0,48,0.00,,,0.00,0.000000,,2013-09-13 08:42:00,
2013-09-13 02:52:00,64.0,44.0,-100.00,WNW,302,2.0,5.0,48,0.00,,,0.00,0.000000,,2013-09-13 08:52:00,
2013-09-13 03:02:00,63.0,44.0,-100.00,WNW,282,2.0,4.0,50,0.00,,,0.00,0.000000,,2013-09-13 09:02:00,
2013-09-13 03:21:00,63.0,44.0,-100.00,WNW,282,2.0,4.0,50,0.00,,,0.00,0.000000,,2013-09-13 09:21:00,
2013-09-13 03:33:00,63.0,44.0,-100.00,WNW,282,2.0,4.0,50,0.00,,,0.00,0.000000,,2013-09-13 09:33:00,
2013-09-13 03:43:00,63.0,44.0,-100.00,WNW,282,2.0,4.0,50,0.00,,,0.00,0.000000,,2013-09-13 09:43:00,
2013-09-13 03:54:00,63.0,44.0,-100.00,WNW,282,2.0,4.0,50,0.00,,,0.00,0.000000,,2013-09-13 09:54:00,
2013-09-13 04:02:00,62.0,44.0,-100.00,WNW,292,2.0,4.0,51,0.00,,,0.00,0.000000,,2013-09-13 10:02:00,
2013-09-13 04:42:00,62.0,44.0,-100.00,WNW,292,2.0,4.0,51,0.00,,,0.00,0.000000,,2013-09-13 10:42:00,
2013-09-13 04:53:00,62.0,44.0,-100.00,WNW,292,2.0,4.0,51,0.00,,,0.00,0.000000,,2013-09-13 10:53:00,
2013-09-13 05:42:00,61.0,44.0,-100.00,WNW,291,2.0,4.0,54,0.00,,,0.00,0.000000,,2013-09-13 11:42:00,
2013-09-13 05:52:00,61.0,44.0,-100.00,WNW,291,2.0,4.0,54,0.00,,,0.00,0.000000,,2013-09-13 11:52:00,
2013-09-13 06:01:00,61.0,44.0,-100.00,WNW,291,2.0,4.0,54,0.00,,,0.00,0.000000,,2013-09-13 12:01:00,
2013-09-13 06:02:00,62.0,44.0,-100.00,West,281,2.0,5.0,52,0.00,,,-99.99,0.000000,,2013-09-13 12:02:00,
2013-09-13 06:42:00,62.0,44.0,-100.00,West,281,2.0,5.0,52,0.00,,,-99.99,0.000000,,2013-09-13 12:42:00,
2013-09-13 06:52:00,62.0,44.0,-100.00,West,281,2.0,5.0,52,0.00,,,-99.99,0.000000,,2013-09-13 12:52:00,
2013-09-13 07:02:00,61.0,44.0,-100.00,NNW,341,2.0,3.0,53,0.00,,,0.00,0.000000,,2013-09-13 13:02:00,
2013-09-13 07:42:00,61.0,44.0,-100.00,NNW,341,2.0,3.0,53,0.00,,,0.00,0.000000,,2013-09-13 13:42:00,
2013-09-13 07:52:00,61.0,44.0,-100.00,NNW,341,2.0,3.0,53,0.00,,,0.00,0.000000,,2013-09-13 13:52:00,
2013-09-13 08:02:00,62.0,45.0,-100.00,SW,228,0.0,2.0,54,-99.99,,,0.00,14.000000,,2013-09-13 14:02:00,
2013-09-13 08:42:00,62.0,45.0,-100.00,SW,228,0.0,2.0,54,-99.99,,,0.00,14.000000,,2013-09-13 14:42:00,
2013-09-13 08:52:00,62.0,45.0,-100.00,SW,228,0.0,2.0,54,-99.99,,,0.00,14.000000,,2013-09-13 14:52:00,
2013-09-13 09:43:00,63.0,47.0,-100.00,NE,44,1.0,2.0,55,0.00,,,-99.99,84.000000,,2013-09-13 15:43:00,
2013-09-13 10:02:00,69.0,47.0,-100.00,SSE,151,3.0,5.0,46,0.00,,,0.00,302.000000,,2013-09-13 16:02:00,
2013-09-13 10:43:00,69.0,47.0,-100.00,SSE,151,3.0,5.0,46,0.00,,,0.00,302.000000,,2013-09-13 16:43:00,
2013-09-13 10:54:00,69.0,47.0,-100.00,SSE,151,3.0,5.0,46,0.00,,,0.00,302.000000,,2013-09-13 16:54:00,
2013-09-13 11:02:00,73.0,47.0,-100.00,SE,126,4.0,6.0,40,0.00,,,0.00,589.000000,,2013-09-13 17:02:00,
2013-09-13 11:44:00,73.0,47.0,-100.00,SE,126,4.0,6.0,40,0.00,,,0.00,589.000000,,2013-09-13 17:44:00,
2013-09-13 11:53:00,73.0,47.0,-100.00,SE,126,4.0,6.0,40,0.00,,,0.00,589.000000,,2013-09-13 17:53:00,
2013-09-13 12:42:00,75.0,48.0,-100.00,SE,139,4.0,8.0,38,0.00,,,0.00,725.000000,,2013-09-13 18:42:00,
2013-09-13 12:52:00,75.0,48.0,-100.00,SE,139,4.0,8.0,38,0.00,,,0.00,725.000000,,2013-09-13 18:52:00,
2013-09-13 13:01:00,75.0,48.0,-100.00,SE,139,4.0,8.0,38,0.00,,,0.00,725.000000,,2013-09-13 19:01:00,
2013-09-13 13:02:00,78.0,48.0,-100.00,ESE,108,4.0,10.0,35,0.00,,,0.00,838.000000,,2013-09-13 19:02:00,
2013-09-13 13:43:00,78.0,48.0,-100.00,ESE,108,4.0,10.0,35,0.00,,,0.00,838.000000,,2013-09-13 19:43:00,
2013-09-13 13:52:00,78.0,48.0,-100.00,ESE,108,4.0,10.0,35,0.00,,,0.00,838.000000,,2013-09-13 19:52:00,
2013-09-13 14:02:00,79.0,47.0,-100.00,East,99,5.0,9.0,33,0.00,,,0.00,906.000000,,2013-09-13 20:02:00,
2013-09-13 14:43:00,79.0,47.0,-100.00,East,99,5.0,9.0,33,0.00,,,0.00,906.000000,,2013-09-13 20:43:00,
2013-09-13 14:52:00,79.0,47.0,-100.00,East,99,5.0,9.0,33,0.00,,,0.00,906.000000,,2013-09-13 20:52:00,
2013-09-13 15:02:00,73.0,46.0,-100.00,ENE,76,2.0,10.0,38,0.00,,,0.00,442.000000,,2013-09-13 21:02:00,
2013-09-13 15:44:00,73.0,46.0,-100.00,ENE,76,2.0,10.0,38,0.00,,,0.00,442.000000,,2013-09-13 21:44:00,
2013-09-13 15:54:00,73.0,46.0,-100.00,ENE,76,2.0,10.0,38,0.00,,,0.00,442.000000,,2013-09-13 21:54:00,
2013-09-13 16:02:00,75.0,44.0,-100.00,East,94,4.0,8.0,33,0.00,,,0.00,501.000000,,2013-09-13 22:02:00,
2013-09-13 16:24:00,75.0,44.0,-100.00,East,94,4.0,8.0,33,0.00,,,0.00,501.000000,,2013-09-13 22:24:00,
2013-09-13 16:33:00,75.0,44.0,-100.00,East,94,4.0,8.0,33,0.00,,,0.00,501.000000,,2013-09-13 22:33:00,
2013-09-13 16:43:00,75.0,44.0,-100.00,East,94,4.0,8.0,33,0.00,,,0.00,501.000000,,2013-09-13 22:43:00,
2013-09-13 16:53:00,75.0,44.0,-100.00,East,94,4.0,8.0,33,0.00,,,0.00,501.000000,,2013-09-13 22:53:00,
2013-09-13 17:43:00,74.0,44.0,-100.00,East,99,5.0,10.0,34,0.00,,,0.00,238.000000,,2013-09-13 23:43:00,
2013-09-13 17:52:00,74.0,44.0,-100.00,East,99,5.0,10.0,34,0.00,,,0.00,238.000000,,2013-09-13 23:52:00,
2013-09-13 18:01:00,74.0,44.0,-100.00,East,99,5.0,10.0,34,0.00,,,0.00,238.000000,,2013-09-14 00:01:00,
2013-09-13 18:02:00,71.0,40.0,-100.00,North,6,3.0,9.0,33,0.00,,,0.00,56.000000,,2013-09-14 00:02:00,
2013-09-13 18:22:00,71.0,40.0,-100.00,North,6,3.0,9.0,33,0.00,,,0.00,56.000000,,2013-09-14 00:22:00,
2013-09-13 18:32:00,71.0,40.0,-100.00,North,6,3.0,9.0,33,0.00,,,0.00,56.000000,,2013-09-14 00:32:00,
2013-09-13 18:42:00,71.0,40.0,-100.00,North,6,3.0,9.0,33,0.00,,,0.00,56.000000,,2013-09-14 00:42:00,
2013-09-13 18:52:00,71.0,40.0,-100.00,North,6,3.0,9.0,33,0.00,,,0.00,56.000000,,2013-09-14 00:52:00,
2013-09-13 19:02:00,68.0,42.0,-100.00,NW,324,2.0,6.0,39,0.00,,,0.00,25.000000,,2013-09-14 01:02:00,
2013-09-13 19:42:00,68.0,42.0,-100.00,NW,324,2.0,6.0,39,0.00,,,0.00,25.000000,,2013-09-14 01:42:00,
2013-09-13 19:52:00,68.0,42.0,-100.00,NW,324,2.0,6.0,39,0.00,,,0.00,25.000000,,2013-09-14 01:52:00,
2013-09-13 20:02:00,68.0,41.0,-100.00,NNW,334,3.0,7.0,37,0.00,,,0.00,14.000000,,2013-09-14 02:02:00,
2013-09-13 20:22:00,68.0,41.0,-100.00,NNW,334,3.0,7.0,37,0.00,,,0.00,14.000000,,2013-09-14 02:22:00,
2013-09-13 20:33:00,68.0,41.0,-100.00,NNW,334,3.0,7.0,37,0.00,,,0.00,14.000000,,2013-09-14 02:33:00,
2013-09-13 20:42:00,68.0,41.0,-100.00,NNW,334,3.0,7.0,37,0.00,,,0.00,14.000000,,2013-09-14 02:42:00,
2013-09-13 20:52:00,68.0,41.0,-100.00,NNW,334,3.0,7.0,37,0.00,,,0.00,14.000000,,2013-09-14 02:52:00,
2013-09-13 21:02:00,66.0,40.0,-100.00,NW,304,2.0,5.0,38,0.00,,,0.00,0.000000,,2013-09-14 03:02:00,
2013-09-13 21:22:00,66.0,40.0,-100.00,NW,304,2.0,5.0,38,0.00,,,0.00,0.000000,,2013-09-14 03:22:00,
2013-09-13 21:34:00,66.0,40.0,-100.00,NW,304,2.0,5.0,38,0.00,,,0.00,0.000000,,2013-09-14 03:34:00,
2013-09-13 21:44:00,66.0,40.0,-100.00,NW,304,2.0,5.0,38,0.00,,,0.00,0.000000,,2013-09-14 03:44:00,
2013-09-13 21:54:00,66.0,40.0,-100.00,NW,304,2.0,5.0,38,0.00,,,0.00,0.000000,,2013-09-14 03:54:00,
2013-09-13 22:02:00,64.0,42.0,-100.00,SSW,193,5.0,11.0,45,0.00,,,0.00,0.000000,,2013-09-14 04:02:00,
2013-09-13 22:43:00,64.0,42.0,-100.00,SSW,193,5.0,11.0,45,0.00,,,0.00,0.000000,,2013-09-14 04:43:00,
2013-09-13 22:54:00,64.0,42.0,-100.00,SSW,193,5.0,11.0,45,0.00,,,0.00,0.000000,,2013-09-14 04:54:00,
2013-09-13 23:02:00,62.0,44.0,-100.00,NW,324,3.0,18.0,51,0.00,,,0.00,0.000000,,2013-09-14 05:02:00,
2013-09-13 23:22:00,62.0,44.0,-100.00,NW,324,3.0,18.0,51,0.00,,,0.00,0.000000,,2013-09-14 05:22:00,
2013-09-13 23:34:00,62.0,44.0,-100.00,NW,324,3.0,18.0,51,0.00,,,0.00,0.000000,,2013-09-14 05:34:00,
2013-09-13 23:43:00,62.0,44.0,-100.00,NW,324,3.0,18.0,51,0.00,,,0.00,0.000000,,2013-09-14 05:43:00,
2013-09-13 23:52:00,62.0,44.0,-100.00,NW,324,3.0,18.0,51,0.00,,,0.00,0.000000,,2013-09-14 05:52:00,